Adak, AK

3:06 AM HST on February 27, 2017 (GMT -1000)
Adak

Weather History for PADK - November, 2012

Change the Weather History Date:

Tuesday, November 6, 2012

  Actual Average Record
Temperature  
Mean Temperature 37 °F -  
Max Temperature 41 °F 44 °F 54 °F (1964)
Min Temperature 33 °F 34 °F 26 °F (2007)
Degree Days  
Heating Degree Days 28    
Moisture  
Dew Point 32 °F    
Average Humidity 75    
Maximum Humidity 87    
Minimum Humidity 61    
Precipitation  
Precipitation 0.00 in - - ()
Sea Level Pressure  
Sea Level Pressure 30.09 in    
Wind  
Wind Speed 21 mph (ENE)    
Max Wind Speed 34 mph    
Max Gust Speed 41 mph    
Visibility 10 miles    
Events      
Averages and records for this station are not official NWS values.
T = Trace of Precipitation, MM = Missing Value Source: NWS Daily Summary

Daily Weather History Graph

Daily Weather History Graph

Search for Another Location

Airport or City:

Trip Planner

Search our weather history database for the weather conditions in past years. The results will help you decide how hot, cold, wet, or windy it might be!

Date:

Astronomy

Nov. 06, 2012 Rise Set
Actual Time 8:51 AM HST 6:08 PM HST
Civil Twilight 8:15 AM HST 6:44 PM HST
Nautical Twilight 7:34 AM HST 7:24 PM HST
Astronomical Twilight 6:55 AM HST 8:03 PM HST
Moon 12:05 AM HST (11/6) 2:43 PM HST (11/6)
Length of Visible Light 10h 29m
Length of Day
9h 16m
Waning Gibbous, 51% of the Moon is Illuminated
Nov 6
Waning Gibbous
Nov 6
Last Quarter
Nov 13
New
Nov 20
First Quarter
Nov 28
Full

Hourly Weather History & Observations

Time (HST) Temp. Windchill Dew Point Humidity Pressure Visibility Wind Dir Wind Speed Gust Speed Precip Events Conditions
12:16 AM 39.2 °F 29.3 °F 30.2 °F 70% 30.24 in 10.0 mi East 20.7 mph - N/A   Overcast
12:36 AM 39.2 °F 29.8 °F 30.2 °F 70% 30.25 in 10.0 mi East 18.4 mph 25.3 mph N/A   Overcast
12:56 AM 37.4 °F 26.4 °F 30.2 °F 75% 30.25 in 10.0 mi East 23.0 mph - N/A   Overcast
1:16 AM 37.4 °F 26.9 °F 30.2 °F 75% 30.24 in 10.0 mi East 20.7 mph - N/A   Overcast
1:36 AM 37.4 °F 27.8 °F 30.2 °F 75% 30.24 in 10.0 mi ENE 17.3 mph - N/A   Overcast
1:56 AM 37.4 °F 27.5 °F 30.2 °F 75% 30.24 in 10.0 mi ENE 18.4 mph - N/A   Overcast
2:16 AM 37.4 °F 27.2 °F 30.2 °F 75% 30.24 in 10.0 mi East 19.6 mph - N/A   Overcast
2:36 AM 37.4 °F 27.2 °F 30.2 °F 75% 30.23 in 10.0 mi East 19.6 mph - N/A   Overcast
2:56 AM 39.2 °F 29.8 °F 30.2 °F 70% 30.23 in 10.0 mi East 18.4 mph 27.6 mph N/A   Overcast
3:16 AM 39.2 °F 29.8 °F 30.2 °F 70% 30.22 in 10.0 mi East 18.4 mph 26.5 mph N/A   Overcast
3:36 AM 39.2 °F 29.3 °F 30.2 °F 70% 30.22 in 10.0 mi East 20.7 mph - N/A   Overcast
3:56 AM 39.2 °F 30.2 °F 30.2 °F 70% 30.21 in 10.0 mi East 17.3 mph - N/A   Overcast
4:16 AM 39.2 °F 30.2 °F 30.2 °F 70% 30.21 in 10.0 mi East 17.3 mph 23.0 mph N/A   Overcast
4:36 AM 39.2 °F 29.8 °F 30.2 °F 70% 30.20 in 10.0 mi East 18.4 mph - N/A   Overcast
4:56 AM 39.2 °F 29.8 °F 30.2 °F 70% 30.19 in 10.0 mi East 18.4 mph - N/A   Overcast
5:16 AM 39.2 °F 29.3 °F 30.2 °F 70% 30.19 in 10.0 mi East 20.7 mph - N/A   Overcast
5:36 AM 39.2 °F 29.0 °F 30.2 °F 70% 30.19 in 10.0 mi East 21.9 mph - N/A   Overcast
5:56 AM 39.2 °F 29.3 °F 30.2 °F 70% 30.19 in 10.0 mi East 20.7 mph 27.6 mph N/A   Overcast
6:16 AM 39.2 °F 29.0 °F 30.2 °F 70% 30.19 in 10.0 mi East 21.9 mph 29.9 mph N/A   Overcast
6:36 AM 37.4 °F 26.9 °F 33.8 °F 87% 30.19 in 10.0 mi East 20.7 mph - N/A   Overcast
6:56 AM 37.4 °F 27.5 °F 33.8 °F 87% 30.18 in 10.0 mi East 18.4 mph - N/A   Overcast
7:16 AM 37.4 °F 27.2 °F 33.8 °F 87% 30.18 in 10.0 mi East 19.6 mph - N/A   Overcast
7:36 AM 39.2 °F 29.0 °F 33.8 °F 81% 30.17 in 10.0 mi ENE 21.9 mph 25.3 mph N/A   Overcast
7:56 AM 39.2 °F 30.2 °F 30.2 °F 70% 30.17 in 10.0 mi East 17.3 mph - N/A   Overcast
8:16 AM 39.2 °F 28.7 °F 30.2 °F 70% 30.17 in 10.0 mi East 23.0 mph - N/A   Overcast
8:36 AM 39.2 °F 28.5 °F 32.0 °F 75% 30.18 in 10.0 mi East 24.2 mph 29.9 mph N/A   Overcast
8:56 AM 37.4 °F 26.6 °F 32.0 °F 81% 30.19 in 9.0 mi East 21.9 mph - N/A   Overcast
9:16 AM 39.2 °F 29.3 °F 30.2 °F 70% 30.19 in 10.0 mi East 20.7 mph 29.9 mph N/A   Overcast
9:36 AM 39.2 °F 28.7 °F 30.2 °F 70% 30.18 in 10.0 mi East 23.0 mph 28.8 mph N/A   Overcast
9:56 AM 39.2 °F 28.7 °F 30.2 °F 70% 30.18 in 10.0 mi East 23.0 mph 33.4 mph N/A   Overcast
10:16 AM 39.2 °F 29.0 °F 30.2 °F 70% 30.17 in 10.0 mi ENE 21.9 mph 26.5 mph N/A   Overcast
10:36 AM 39.2 °F 29.3 °F 32.0 °F 75% 30.16 in 10.0 mi ENE 20.7 mph 26.5 mph N/A   Overcast
10:56 AM 39.2 °F 28.5 °F 32.0 °F 75% 30.14 in 10.0 mi East 24.2 mph 28.8 mph N/A   Overcast
11:16 AM 39.2 °F 30.5 °F 32.0 °F 75% 30.14 in 10.0 mi East 16.1 mph - N/A   Overcast
11:36 AM 39.2 °F 28.5 °F 33.8 °F 81% 30.14 in 9.0 mi East 24.2 mph 32.2 mph N/A   Overcast
11:56 AM 39.2 °F 29.0 °F 33.8 °F 81% 30.14 in 10.0 mi ENE 21.9 mph 28.8 mph N/A   Overcast
12:16 PM 39.2 °F 28.3 °F 33.8 °F 81% 30.13 in 10.0 mi East 25.3 mph 31.1 mph N/A   Overcast
12:36 PM 41.0 °F 30.2 °F 32.0 °F 70% 30.13 in 10.0 mi East 27.6 mph 31.1 mph N/A   Overcast
12:56 PM 39.2 °F 30.5 °F 33.8 °F 81% 30.13 in 7.0 mi East 16.1 mph - N/A   Overcast
1:16 PM 39.2 °F 28.5 °F 33.8 °F 81% 30.14 in 9.0 mi East 24.2 mph 29.9 mph N/A   Overcast
1:36 PM 39.2 °F 28.5 °F 33.8 °F 81% 30.12 in 6.0 mi East 24.2 mph 28.8 mph N/A   Overcast
1:56 PM 39.2 °F 28.7 °F 33.8 °F 81% 30.11 in 8.0 mi East 23.0 mph 29.9 mph N/A   Overcast
2:16 PM 39.2 °F 28.5 °F 33.8 °F 81% 30.11 in 9.0 mi East 24.2 mph 28.8 mph N/A   Overcast
2:36 PM 39.2 °F 28.7 °F 33.8 °F 81% 30.10 in 10.0 mi East 23.0 mph - N/A   Overcast
2:56 PM 39.2 °F 29.3 °F 33.8 °F 81% 30.09 in 9.0 mi ENE 20.7 mph 32.2 mph N/A   Overcast
3:16 PM 39.2 °F 29.3 °F 33.8 °F 81% 30.07 in 10.0 mi ENE 20.7 mph 26.5 mph N/A   Overcast
3:36 PM 39.2 °F 29.6 °F 33.8 °F 81% 30.06 in 10.0 mi NE 19.6 mph 24.2 mph N/A   Overcast
3:56 PM 39.2 °F 29.6 °F 32.0 °F 75% 30.04 in 10.0 mi ENE 19.6 mph 31.1 mph N/A   Overcast
4:16 PM 39.2 °F 28.0 °F 33.8 °F 81% 30.03 in 10.0 mi East 26.5 mph - N/A   Overcast
4:36 PM 39.2 °F 28.5 °F 32.0 °F 75% 30.02 in 10.0 mi ENE 24.2 mph - N/A   Overcast
4:56 PM 39.2 °F 27.6 °F 32.0 °F 75% 30.02 in 10.0 mi East 28.8 mph 32.2 mph N/A   Overcast
5:16 PM 39.2 °F 29.0 °F 32.0 °F 75% 30.02 in 10.0 mi ENE 21.9 mph 29.9 mph N/A   Overcast
5:36 PM 39.2 °F 27.8 °F 33.8 °F 81% 30.01 in 10.0 mi East 27.6 mph 32.2 mph N/A   Overcast
5:56 PM 39.2 °F 28.0 °F 33.8 °F 81% 30.00 in 10.0 mi East 26.5 mph - N/A   Overcast
6:16 PM 39.2 °F 29.3 °F 32.0 °F 75% 30.00 in 10.0 mi ENE 20.7 mph - N/A   Overcast
6:36 PM 39.2 °F 28.7 °F 30.2 °F 70% 29.99 in 10.0 mi ENE 23.0 mph 28.8 mph N/A   Overcast
6:56 PM 39.2 °F 28.5 °F 32.0 °F 75% 29.98 in 10.0 mi ENE 24.2 mph 29.9 mph N/A   Overcast
7:16 PM 39.2 °F 29.0 °F 32.0 °F 75% 29.96 in 10.0 mi ENE 21.9 mph 26.5 mph N/A   Overcast
7:36 PM 39.2 °F 29.3 °F 32.0 °F 75% 29.95 in 10.0 mi ENE 20.7 mph 28.8 mph N/A   Overcast
7:56 PM 41.0 °F 30.9 °F 33.8 °F 76% 29.93 in 10.0 mi ENE 24.2 mph 32.2 mph N/A   Overcast
8:16 PM 39.2 °F 29.0 °F 32.0 °F 75% 29.92 in 10.0 mi ENE 21.9 mph 32.2 mph N/A   Overcast
8:36 PM 39.2 °F 28.3 °F 33.8 °F 81% 29.91 in 10.0 mi East 25.3 mph 29.9 mph N/A   Overcast
8:56 PM 41.0 °F 30.9 °F 33.8 °F 76% 29.91 in 10.0 mi ENE 24.2 mph 32.2 mph N/A   Overcast
9:16 PM 41.0 °F 29.8 °F 33.8 °F 76% 29.90 in 10.0 mi East 29.9 mph 35.7 mph N/A   Overcast
9:36 PM 39.2 °F 29.3 °F 33.8 °F 81% 29.89 in 10.0 mi ENE 20.7 mph 27.6 mph N/A   Overcast
9:56 PM 41.0 °F 30.5 °F 33.8 °F 76% 29.88 in 10.0 mi ENE 26.5 mph 32.2 mph N/A   Overcast
10:16 PM 41.0 °F 30.5 °F 33.8 °F 76% 29.87 in 10.0 mi East 26.5 mph 32.2 mph N/A   Overcast
10:36 PM 41.0 °F 30.5 °F 33.8 °F 76% 29.85 in 10.0 mi ENE 26.5 mph 35.7 mph N/A   Overcast
10:56 PM 41.0 °F 29.5 °F 33.8 °F 76% 29.85 in 10.0 mi ENE 32.2 mph 39.1 mph N/A   Overcast
11:16 PM 41.0 °F 30.0 °F 33.8 °F 76% 29.83 in 10.0 mi East 28.8 mph 35.7 mph N/A   Overcast
11:36 PM 41.0 °F 29.8 °F 33.8 °F 76% 29.82 in 10.0 mi ENE 29.9 mph 41.4 mph N/A   Overcast
11:56 PM 41.0 °F 29.1 °F 33.8 °F 76% 29.80 in 10.0 mi ENE 34.5 mph 41.4 mph N/A   Overcast